NORTHERN NASSAU  -  Flash Flood Watch Flash Flood Watch     Rip Current Statement Rip Current Statement        NORTHERN QUEENS  -  Flash Flood Watch Flash Flood Watch     Rip Current Statement Rip Current Statement        SOUTHERN NASSAU  -  Flash Flood Watch Flash Flood Watch     Rip Current Statement Rip Current Statement        SOUTHERN QUEENS  -  Flash Flood Watch Flash Flood Watch     Rip Current Statement Rip Current Statement        NORTHEAST SUFFOLK  -  Rip Current Statement Rip Current Statement        NORTHWEST SUFFOLK  -  Rip Current Statement Rip Current Statement        SOUTHEAST SUFFOLK  -  Rip Current Statement Rip Current Statement        SOUTHWEST SUFFOLK  -  Rip Current Statement Rip Current Statement      

Active alerts

Northern Queens
  Details for Northern Queens Flash Flood Watch  +1 additional alert
Southern Queens
  Details for Southern Queens Flash Flood Watch  +1 additional alert
Northern Nassau
  Details for Northern Nassau Flash Flood Watch  +1 additional alert
Southern Nassau
  Details for Southern Nassau Flash Flood Watch  +1 additional alert
Northwest Suffolk
  Details for Northwest Suffolk Rip Current Statement
Southwest Suffolk
  Details for Southwest Suffolk Rip Current Statement
Northeast Suffolk
  Details for Northeast Suffolk Rip Current Statement
Southeast Suffolk
  Details for Southeast Suffolk Rip Current Statement


WXM80 ListenWXM80 Stop

You find our weather info also at:

UK Metoffice

WeatherCloud

Weather Underground

Northeastern Weather Network

AWEKAS

Citizen Weather Observer Program (CWOP)

HAMweather, WeatherForYou, PWS Weather


Weather Underground History page Text

Daily Summary for January 5, 2017 Units:  English    Metric   Both
« Previous Day
Next Day »
Daily Weekly Monthly Yearly Custom
  High: Low: Average:
Temperature: 35.4 °F 28.4 °F 31.2 °F
Dew Point: 18.8 °F 12.4 °F 15.7 °F
Humidity: 58 % 47 % 52 %
Wind Speed: 11.5 mph 0.0 mph 4.8 mph
Wind Gust: 29.0 mph - -
Wind:- - WSW
Pressure: 29.97 in 29.67 in -
Precipitation: 0.00 in    
Historical Graphs
 
 
Tabular Data for January 5, 2017
Time Temperature Dew Point Pressure Wind Wind Speed Wind Gust Humidity Rainfall Rate (Hourly)
00:02 35.4 °F 17.6 °F 29.67 in South 10.5 mph 29.0 mph 48 % 0.00 in
00:07 35.3 °F 17.5 °F 29.68 in WNW 10.3 mph 29.0 mph 48 % 0.00 in
00:12 35.1 °F 17.4 °F 29.67 in West 11.5 mph 29.0 mph 48 % 0.00 in
00:17 35.1 °F 17.8 °F 29.68 in SW 3.7 mph 29.0 mph 49 % 0.00 in
00:23 34.9 °F 18.1 °F 29.68 in West 7.6 mph 29.0 mph 50 % 0.00 in
00:28 34.8 °F 18.0 °F 29.69 in NW 7.4 mph 29.0 mph 50 % 0.00 in
00:33 34.7 °F 17.9 °F 29.69 in NW 9.8 mph 29.0 mph 50 % 0.00 in
00:38 34.6 °F 18.3 °F 29.69 in West 7.8 mph 29.0 mph 51 % 0.00 in
00:43 34.5 °F 18.2 °F 29.69 in West 5.1 mph 29.0 mph 51 % 0.00 in
00:48 34.4 °F 18.1 °F 29.70 in WSW 7.0 mph 29.0 mph 51 % 0.00 in
00:53 34.2 °F 17.0 °F 29.70 in West 5.4 mph 29.0 mph 49 % 0.00 in
00:58 34.1 °F 17.4 °F 29.70 in South 8.3 mph 29.0 mph 50 % 0.00 in
01:03 34.1 °F 17.4 °F 29.71 in SW 11.0 mph 29.0 mph 50 % 0.00 in
01:08 34.1 °F 17.4 °F 29.71 in SW 9.6 mph 29.0 mph 50 % 0.00 in
01:13 34.0 °F 17.7 °F 29.71 in WSW 10.7 mph 29.0 mph 51 % 0.00 in
01:18 33.9 °F 17.2 °F 29.71 in WNW 8.0 mph 29.0 mph 50 % 0.00 in
01:23 33.8 °F 17.1 °F 29.71 in WNW 6.2 mph 29.0 mph 50 % 0.00 in
01:28 33.7 °F 17.5 °F 29.72 in WNW 5.7 mph 29.0 mph 51 % 0.00 in
01:33 33.6 °F 17.8 °F 29.73 in WSW 9.3 mph 29.0 mph 52 % 0.00 in
01:38 33.6 °F 18.3 °F 29.73 in WSW 5.8 mph 29.0 mph 53 % 0.00 in
01:43 33.5 °F 18.2 °F 29.72 in West 4.5 mph 29.0 mph 53 % 0.00 in
01:49 33.4 °F 18.5 °F 29.73 in WSW 9.4 mph 29.0 mph 54 % 0.00 in
01:54 33.3 °F 18.0 °F 29.73 in WSW 7.9 mph 29.0 mph 53 % 0.00 in
01:59 33.2 °F 17.5 °F 29.73 in WSW 7.6 mph 29.0 mph 52 % 0.00 in
02:04 33.1 °F 17.8 °F 29.73 in WSW 8.2 mph 29.0 mph 53 % 0.00 in
02:09 33.0 °F 17.3 °F 29.73 in SW 8.8 mph 29.0 mph 52 % 0.00 in
02:14 32.9 °F 17.2 °F 29.73 in WNW 9.7 mph 29.0 mph 52 % 0.00 in
02:19 32.9 °F 17.2 °F 29.73 in WSW 4.9 mph 29.0 mph 52 % 0.00 in
02:24 32.8 °F 17.5 °F 29.74 in WNW 7.9 mph 29.0 mph 53 % 0.00 in
02:29 32.6 °F 16.9 °F 29.74 in West 9.0 mph 16.0 mph 52 % 0.00 in
02:34 32.6 °F 17.3 °F 29.74 in West 8.0 mph 12.0 mph 53 % 0.00 in
02:39 32.5 °F 17.2 °F 29.73 in West 6.0 mph 16.0 mph 53 % 0.00 in
02:44 32.4 °F 17.1 °F 29.73 in West 9.0 mph 16.0 mph 53 % 0.00 in
02:49 32.2 °F 17.0 °F 29.73 in West 5.0 mph 14.0 mph 53 % 0.00 in
02:54 32.1 °F 16.9 °F 29.74 in West 8.0 mph 15.0 mph 53 % 0.00 in
02:59 32.1 °F 17.3 °F 29.75 in WSW 8.3 mph 29.0 mph 54 % 0.00 in
03:04 32.1 °F 17.7 °F 29.76 in WSW 7.0 mph 20.0 mph 55 % 0.00 in
03:09 32.0 °F 18.5 °F 29.76 in WSW 5.0 mph 10.0 mph 57 % 0.00 in
03:14 32.0 °F 18.0 °F 29.76 in WSW 9.0 mph 18.0 mph 56 % 0.00 in
03:19 31.9 °F 18.4 °F 29.76 in WSW 8.9 mph 29.0 mph 57 % 0.00 in
03:24 31.8 °F 17.9 °F 29.77 in WSW 6.0 mph 16.0 mph 56 % 0.00 in
03:29 31.7 °F 17.8 °F 29.77 in WSW 9.0 mph 20.0 mph 56 % 0.00 in
03:34 31.6 °F 18.1 °F 29.78 in WSW 7.0 mph 16.0 mph 57 % 0.00 in
03:39 31.5 °F 17.2 °F 29.78 in WSW 8.0 mph 16.0 mph 55 % 0.00 in
03:44 31.4 °F 17.5 °F 29.78 in SW 6.0 mph 16.0 mph 56 % 0.00 in
03:49 31.3 °F 17.4 °F 29.78 in West 8.9 mph 29.0 mph 56 % 0.00 in
03:54 31.2 °F 16.9 °F 29.78 in SW 3.0 mph 16.0 mph 55 % 0.00 in
03:59 31.1 °F 16.8 °F 29.79 in West 7.4 mph 29.0 mph 55 % 0.00 in
04:04 31.0 °F 17.1 °F 29.79 in West 9.0 mph 29.0 mph 56 % 0.00 in
04:09 31.0 °F 17.5 °F 29.79 in SW 5.0 mph 29.0 mph 57 % 0.00 in
04:14 30.9 °F 17.0 °F 29.80 in West 5.4 mph 29.0 mph 56 % 0.00 in
04:19 30.9 °F 17.0 °F 29.79 in SW 5.3 mph 29.0 mph 56 % 0.00 in
04:24 30.8 °F 16.9 °F 29.79 in WSW 4.6 mph 29.0 mph 56 % 0.00 in
04:29 30.8 °F 16.1 °F 29.80 in West 7.2 mph 29.0 mph 54 % 0.00 in
04:35 30.8 °F 15.7 °F 29.81 in West 8.3 mph 29.0 mph 53 % 0.00 in
04:40 30.7 °F 16.0 °F 29.80 in WSW 5.7 mph 29.0 mph 54 % 0.00 in
04:45 30.7 °F 16.0 °F 29.80 in WSW 7.5 mph 29.0 mph 54 % 0.00 in
04:50 30.6 °F 15.9 °F 29.80 in WSW 9.9 mph 29.0 mph 54 % 0.00 in
04:55 30.5 °F 15.4 °F 29.81 in WSW 6.5 mph 29.0 mph 53 % 0.00 in
05:00 30.4 °F 15.3 °F 29.81 in WNW 6.4 mph 29.0 mph 53 % 0.00 in
05:05 30.3 °F 14.8 °F 29.82 in West 6.6 mph 29.0 mph 52 % 0.00 in
05:10 30.2 °F 14.7 °F 29.82 in SW 6.0 mph 29.0 mph 52 % 0.00 in
05:15 30.1 °F 14.6 °F 29.83 in WNW 9.3 mph 29.0 mph 52 % 0.00 in
05:20 30.1 °F 14.1 °F 29.83 in WSW 9.2 mph 29.0 mph 51 % 0.00 in
05:25 29.9 °F 13.0 °F 29.83 in West 8.7 mph 29.0 mph 49 % 0.00 in
05:30 29.8 °F 12.9 °F 29.83 in WSW 9.7 mph 29.0 mph 49 % 0.00 in
05:35 29.7 °F 12.4 °F 29.84 in West 10.4 mph 29.0 mph 48 % 0.00 in
05:41 29.6 °F 12.8 °F 29.85 in WSW 10.2 mph 29.0 mph 49 % 0.00 in
05:46 29.5 °F 12.7 °F 29.84 in West 4.2 mph 29.0 mph 49 % 0.00 in
05:51 29.4 °F 13.0 °F 29.85 in West 2.4 mph 29.0 mph 50 % 0.00 in
05:56 29.4 °F 13.9 °F 29.85 in West 8.6 mph 29.0 mph 52 % 0.00 in
06:01 29.4 °F 14.8 °F 29.85 in West 3.9 mph 29.0 mph 54 % 0.00 in
06:06 29.3 °F 15.1 °F 29.86 in SW 9.0 mph 29.0 mph 55 % 0.00 in
06:11 29.2 °F 15.0 °F 29.86 in WSW 5.6 mph 29.0 mph 55 % 0.00 in
06:16 29.2 °F 15.4 °F 29.87 in WSW 6.8 mph 29.0 mph 56 % 0.00 in
06:21 29.1 °F 14.5 °F 29.87 in SW 11.4 mph 29.0 mph 54 % 0.00 in
06:26 29.0 °F 14.4 °F 29.87 in WSW 8.9 mph 29.0 mph 54 % 0.00 in
06:31 29.0 °F 14.4 °F 29.87 in WSW 6.5 mph 29.0 mph 54 % 0.00 in
06:36 29.0 °F 14.0 °F 29.88 in WSW 3.0 mph 29.0 mph 53 % 0.00 in
06:41 28.9 °F 14.3 °F 29.87 in West 5.8 mph 29.0 mph 54 % 0.00 in
06:47 28.8 °F 13.8 °F 29.88 in WSW 2.4 mph 29.0 mph 53 % 0.00 in
06:52 28.8 °F 14.6 °F 29.88 in WSW 5.2 mph 29.0 mph 55 % 0.00 in
06:57 28.7 °F 14.6 °F 29.88 in WSW 8.0 mph 29.0 mph 55 % 0.00 in
07:02 28.6 °F 14.0 °F 29.88 in South 5.3 mph 29.0 mph 54 % 0.00 in
07:07 28.5 °F 13.9 °F 29.89 in SW 8.3 mph 29.0 mph 54 % 0.00 in
07:12 28.5 °F 13.9 °F 29.89 in SSW 9.8 mph 29.0 mph 54 % 0.00 in
07:17 28.5 °F 13.9 °F 29.90 in WSW 6.8 mph 29.0 mph 54 % 0.00 in
07:22 28.4 °F 14.3 °F 29.90 in SSW 7.8 mph 29.0 mph 55 % 0.00 in
07:27 28.4 °F 14.7 °F 29.90 in WNW 6.3 mph 29.0 mph 56 % 0.00 in
07:32 28.4 °F 13.9 °F 29.91 in West 8.8 mph 29.0 mph 54 % 0.00 in
07:37 28.4 °F 14.3 °F 29.91 in WNW 4.1 mph 29.0 mph 55 % 0.00 in
07:42 28.5 °F 14.8 °F 29.91 in WSW 7.8 mph 29.0 mph 56 % 0.00 in
07:47 28.5 °F 14.8 °F 29.90 in WNW 5.5 mph 29.0 mph 56 % 0.00 in
07:53 28.6 °F 14.9 °F 29.90 in SW 8.9 mph 29.0 mph 56 % 0.00 in
07:58 28.6 °F 14.5 °F 29.90 in WNW 6.8 mph 29.0 mph 55 % 0.00 in
08:03 28.6 °F 14.9 °F 29.90 in WNW 6.3 mph 29.0 mph 56 % 0.00 in
08:08 28.6 °F 14.5 °F 29.91 in WSW 8.5 mph 29.0 mph 55 % 0.00 in
08:13 28.6 °F 14.5 °F 29.91 in West 6.6 mph 29.0 mph 55 % 0.00 in
08:18 28.5 °F 14.4 °F 29.91 in SW 6.4 mph 29.0 mph 55 % 0.00 in
08:23 28.5 °F 14.4 °F 29.91 in West 7.7 mph 29.0 mph 55 % 0.00 in
08:28 28.5 °F 14.4 °F 29.91 in SW 7.6 mph 29.0 mph 55 % 0.00 in
08:33 28.5 °F 14.4 °F 29.91 in NW 4.6 mph 29.0 mph 55 % 0.00 in
08:38 28.6 °F 14.5 °F 29.91 in SW 4.8 mph 29.0 mph 55 % 0.00 in
08:43 28.6 °F 14.5 °F 29.91 in WNW 4.6 mph 29.0 mph 55 % 0.00 in
08:48 28.7 °F 14.1 °F 29.91 in West 8.0 mph 29.0 mph 54 % 0.00 in
08:54 28.7 °F 14.6 °F 29.91 in West 3.0 mph 29.0 mph 55 % 0.00 in
08:59 28.8 °F 14.6 °F 29.92 in NW 3.9 mph 29.0 mph 55 % 0.00 in
09:04 28.9 °F 13.9 °F 29.92 in West 7.6 mph 29.0 mph 53 % 0.00 in
09:09 29.0 °F 14.0 °F 29.92 in West 5.3 mph 29.0 mph 53 % 0.00 in
09:14 29.0 °F 14.4 °F 29.93 in WSW 6.2 mph 29.0 mph 54 % 0.00 in
09:19 29.1 °F 13.6 °F 29.93 in WNW 4.4 mph 29.0 mph 52 % 0.00 in
09:24 29.2 °F 14.2 °F 29.94 in West 2.4 mph 29.0 mph 53 % 0.00 in
09:29 29.4 °F 14.4 °F 29.94 in WSW 9.9 mph 29.0 mph 53 % 0.00 in
09:34 29.5 °F 14.0 °F 29.95 in WSW 4.8 mph 29.0 mph 52 % 0.00 in
09:39 29.6 °F 14.5 °F 29.95 in WSW 5.0 mph 15.0 mph 53 % 0.00 in
09:44 29.6 °F 14.1 °F 29.96 in WSW 7.0 mph 17.0 mph 52 % 0.00 in
09:49 29.6 °F 14.1 °F 29.96 in WSW 6.0 mph 17.0 mph 52 % 0.00 in
09:54 29.6 °F 14.1 °F 29.97 in West 6.5 mph 29.0 mph 52 % 0.00 in
09:59 29.7 °F 14.2 °F 29.96 in West 2.5 mph 29.0 mph 52 % 0.00 in
10:04 29.7 °F 13.8 °F 29.96 in West 5.8 mph 29.0 mph 51 % 0.00 in
10:09 29.8 °F 14.3 °F 29.97 in West 8.6 mph 29.0 mph 52 % 0.00 in
10:14 29.8 °F 13.9 °F 29.96 in SW 7.5 mph 29.0 mph 51 % 0.00 in
10:19 29.9 °F 14.4 °F 29.96 in West 9.1 mph 29.0 mph 52 % 0.00 in
10:25 30.0 °F 13.6 °F 29.95 in WNW 3.5 mph 29.0 mph 50 % 0.00 in
10:30 30.1 °F 14.1 °F 29.95 in West 8.9 mph 29.0 mph 51 % 0.00 in
10:35 30.1 °F 13.7 °F 29.96 in WNW 9.0 mph 29.0 mph 50 % 0.00 in
10:40 30.2 °F 13.8 °F 29.96 in West 6.8 mph 29.0 mph 50 % 0.00 in
10:45 30.3 °F 14.3 °F 29.95 in West 4.8 mph 29.0 mph 51 % 0.00 in
10:50 30.5 °F 14.5 °F 29.94 in WSW 8.7 mph 29.0 mph 51 % 0.00 in
10:55 30.5 °F 14.0 °F 29.94 in WNW 3.6 mph 29.0 mph 50 % 0.00 in
11:00 30.5 °F 14.0 °F 29.93 in West 6.5 mph 29.0 mph 50 % 0.00 in
11:05 30.5 °F 13.6 °F 29.93 in NW 5.4 mph 29.0 mph 49 % 0.00 in
11:10 30.6 °F 14.1 °F 29.93 in West 6.7 mph 29.0 mph 50 % 0.00 in
11:15 30.7 °F 14.2 °F 29.92 in West 1.9 mph 29.0 mph 50 % 0.00 in
11:20 30.8 °F 14.3 °F 29.92 in West 3.9 mph 29.0 mph 50 % 0.00 in
11:25 31.0 °F 14.5 °F 29.92 in WSW 5.2 mph 29.0 mph 50 % 0.00 in
11:30 31.0 °F 14.5 °F 29.92 in West 4.3 mph 29.0 mph 50 % 0.00 in
11:35 31.0 °F 14.5 °F 29.92 in WNW 6.6 mph 29.0 mph 50 % 0.00 in
11:40 30.9 °F 14.4 °F 29.91 in West 7.0 mph 29.0 mph 50 % 0.00 in
11:45 31.0 °F 14.5 °F 29.91 in NW 2.4 mph 29.0 mph 50 % 0.00 in
11:50 31.1 °F 14.6 °F 29.91 in WNW 1.0 mph 29.0 mph 50 % 0.00 in
11:55 31.3 °F 14.8 °F 29.91 in WSW 3.4 mph 29.0 mph 50 % 0.00 in
12:01 31.4 °F 13.9 °F 29.91 in West 5.0 mph 29.0 mph 48 % 0.00 in
12:06 31.4 °F 14.4 °F 29.92 in West 4.7 mph 29.0 mph 49 % 0.00 in
12:11 31.4 °F 14.4 °F 29.92 in NNW 7.8 mph 29.0 mph 49 % 0.00 in
12:16 31.4 °F 14.4 °F 29.92 in WNW 4.8 mph 29.0 mph 49 % 0.00 in
12:21 31.5 °F 15.0 °F 29.91 in WSW 6.0 mph 29.0 mph 50 % 0.00 in
12:26 31.5 °F 14.5 °F 29.91 in WSW 6.4 mph 29.0 mph 49 % 0.00 in
12:31 31.5 °F 14.5 °F 29.91 in WSW 7.8 mph 29.0 mph 49 % 0.00 in
12:36 31.7 °F 15.2 °F 29.91 in WSW 7.7 mph 29.0 mph 50 % 0.00 in
12:41 31.7 °F 14.2 °F 29.91 in WSW 5.2 mph 29.0 mph 48 % 0.00 in
12:46 31.7 °F 14.2 °F 29.91 in West 3.2 mph 29.0 mph 48 % 0.00 in
12:51 31.8 °F 14.8 °F 29.91 in WSW 5.6 mph 29.0 mph 49 % 0.00 in
12:56 31.9 °F 14.9 °F 29.90 in SW 5.3 mph 29.0 mph 49 % 0.00 in
13:01 32.1 °F 15.1 °F 29.90 in West 6.3 mph 29.0 mph 49 % 0.00 in
13:06 32.2 °F 14.7 °F 29.90 in WSW 7.9 mph 29.0 mph 48 % 0.00 in
13:12 32.3 °F 14.8 °F 29.89 in West 2.3 mph 29.0 mph 48 % 0.00 in
13:17 32.4 °F 14.9 °F 29.89 in SW 5.4 mph 29.0 mph 48 % 0.00 in
13:22 32.4 °F 14.4 °F 29.89 in WNW 3.0 mph 29.0 mph 47 % 0.00 in
13:27 32.5 °F 15.0 °F 29.89 in SW 2.4 mph 29.0 mph 48 % 0.00 in
13:32 32.6 °F 15.1 °F 29.89 in NW 3.7 mph 29.0 mph 48 % 0.00 in
13:37 32.5 °F 14.5 °F 29.89 in WNW 4.7 mph 29.0 mph 47 % 0.00 in
13:42 32.5 °F 15.0 °F 29.89 in West 6.5 mph 29.0 mph 48 % 0.00 in
13:47 32.6 °F 14.6 °F 29.90 in WNW 5.0 mph 29.0 mph 47 % 0.00 in
13:52 32.7 °F 14.7 °F 29.90 in WSW 8.6 mph 29.0 mph 47 % 0.00 in
13:57 32.7 °F 14.7 °F 29.90 in WSW 5.6 mph 29.0 mph 47 % 0.00 in
14:02 32.7 °F 14.7 °F 29.90 in SW 6.8 mph 29.0 mph 47 % 0.00 in
14:07 32.6 °F 14.6 °F 29.90 in West 3.1 mph 29.0 mph 47 % 0.00 in
14:12 32.7 °F 15.1 °F 29.90 in WSW 5.8 mph 29.0 mph 48 % 0.00 in
14:18 32.7 °F 14.7 °F 29.90 in SW 7.6 mph 29.0 mph 47 % 0.00 in
14:23 32.6 °F 15.1 °F 29.90 in WSW 5.5 mph 29.0 mph 48 % 0.00 in
14:28 32.5 °F 14.5 °F 29.90 in WSW 3.0 mph 29.0 mph 47 % 0.00 in
14:33 32.4 °F 14.4 °F 29.90 in WNW 3.2 mph 29.0 mph 47 % 0.00 in
14:38 32.4 °F 14.9 °F 29.90 in WNW 3.1 mph 29.0 mph 48 % 0.00 in
14:43 32.3 °F 14.8 °F 29.90 in West 3.5 mph 29.0 mph 48 % 0.00 in
14:48 32.3 °F 15.3 °F 29.89 in West 2.6 mph 29.0 mph 49 % 0.00 in
14:53 32.3 °F 15.3 °F 29.90 in WSW 5.5 mph 29.0 mph 49 % 0.00 in
14:58 32.2 °F 14.7 °F 29.90 in NW 4.9 mph 29.0 mph 48 % 0.00 in
15:03 32.1 °F 14.6 °F 29.90 in WSW 5.2 mph 29.0 mph 48 % 0.00 in
15:08 32.1 °F 14.1 °F 29.91 in WSW 4.2 mph 29.0 mph 47 % 0.00 in
15:13 32.1 °F 14.6 °F 29.90 in WSW 5.6 mph 29.0 mph 48 % 0.00 in
15:18 32.0 °F 14.5 °F 29.91 in SW 6.4 mph 29.0 mph 48 % 0.00 in
15:23 32.0 °F 15.0 °F 29.90 in WSW 3.1 mph 29.0 mph 49 % 0.00 in
15:28 32.0 °F 14.5 °F 29.90 in WSW 2.1 mph 29.0 mph 48 % 0.00 in
15:34 32.0 °F 15.0 °F 29.90 in WSW 3.4 mph 29.0 mph 49 % 0.00 in
15:39 32.0 °F 14.5 °F 29.90 in WSW 3.3 mph 29.0 mph 48 % 0.00 in
15:44 31.9 °F 14.4 °F 29.91 in SSW 4.7 mph 29.0 mph 48 % 0.00 in
15:49 31.9 °F 14.4 °F 29.90 in WSW 2.0 mph 29.0 mph 48 % 0.00 in
15:54 31.9 °F 14.4 °F 29.90 in SW 2.2 mph 29.0 mph 48 % 0.00 in
15:59 31.9 °F 14.9 °F 29.90 in WSW 4.9 mph 29.0 mph 49 % 0.00 in
16:04 31.8 °F 14.3 °F 29.90 in WSW 2.9 mph 29.0 mph 48 % 0.00 in
16:09 31.8 °F 14.3 °F 29.90 in WSW 5.1 mph 29.0 mph 48 % 0.00 in
16:14 31.7 °F 14.7 °F 29.90 in West 3.5 mph 29.0 mph 49 % 0.00 in
16:19 31.7 °F 14.7 °F 29.90 in WSW 5.9 mph 29.0 mph 49 % 0.00 in
16:24 31.6 °F 14.6 °F 29.90 in WSW 3.0 mph 7.0 mph 49 % 0.00 in
16:29 31.6 °F 14.1 °F 29.90 in WSW 3.0 mph 7.0 mph 48 % 0.00 in
16:34 31.5 °F 14.5 °F 29.88 in WSW 1.7 mph 29.0 mph 49 % 0.00 in
16:39 31.5 °F 14.5 °F 29.89 in SSW 1.4 mph 29.0 mph 49 % 0.00 in
16:44 31.4 °F 14.9 °F 29.88 in WSW 2.4 mph 29.0 mph 50 % 0.00 in
16:49 31.4 °F 14.4 °F 29.89 in SW 1.6 mph 29.0 mph 49 % 0.00 in
16:54 31.3 °F 14.8 °F 29.89 in SW 1.4 mph 29.0 mph 50 % 0.00 in
16:59 31.3 °F 14.3 °F 29.89 in WSW 1.1 mph 29.0 mph 49 % 0.00 in
17:04 31.2 °F 14.7 °F 29.90 in SW 2.1 mph 29.0 mph 50 % 0.00 in
17:10 31.2 °F 14.7 °F 29.90 in SW 1.5 mph 29.0 mph 50 % 0.00 in
17:15 31.2 °F 14.7 °F 29.90 in SW 0.8 mph 29.0 mph 50 % 0.00 in
17:20 31.2 °F 14.7 °F 29.90 in SW 0.6 mph 29.0 mph 50 % 0.00 in
17:25 31.2 °F 15.2 °F 29.90 in SW 1.2 mph 29.0 mph 51 % 0.00 in
17:30 31.2 °F 15.2 °F 29.90 in SW 0.9 mph 29.0 mph 51 % 0.00 in
17:35 31.2 °F 15.6 °F 29.90 in SW 0.6 mph 29.0 mph 52 % 0.00 in
17:40 31.2 °F 15.6 °F 29.91 in SW 0.3 mph 29.0 mph 52 % 0.00 in
17:45 31.2 °F 15.6 °F 29.90 in SW 0.4 mph 29.0 mph 52 % 0.00 in
17:50 31.1 °F 15.5 °F 29.91 in SW 1.2 mph 29.0 mph 52 % 0.00 in
17:55 31.1 °F 15.5 °F 29.91 in Calm   29.0 mph 52 % 0.00 in
18:00 31.0 °F 15.8 °F 29.92 in SW 0.4 mph 29.0 mph 53 % 0.00 in
18:05 30.9 °F 15.8 °F 29.92 in SW 0.3 mph 29.0 mph 53 % 0.00 in
18:10 30.8 °F 15.7 °F 29.92 in SW 1.2 mph 29.0 mph 53 % 0.00 in
18:15 30.7 °F 15.6 °F 29.92 in SW 1.0 mph 29.0 mph 53 % 0.00 in
18:20 30.6 °F 15.5 °F 29.92 in SW 1.1 mph 29.0 mph 53 % 0.00 in
18:25 30.5 °F 15.4 °F 29.92 in SW 1.8 mph 29.0 mph 53 % 0.00 in
18:30 30.5 °F 15.8 °F 29.92 in SW 2.0 mph 29.0 mph 54 % 0.00 in
18:36 30.5 °F 15.8 °F 29.92 in SW 1.4 mph 29.0 mph 54 % 0.00 in
18:41 30.4 °F 15.7 °F 29.92 in SW 1.6 mph 29.0 mph 54 % 0.00 in
18:46 30.4 °F 15.7 °F 29.93 in SSW 3.2 mph 29.0 mph 54 % 0.00 in
18:51 30.5 °F 15.8 °F 29.92 in SW 0.7 mph 29.0 mph 54 % 0.00 in
18:56 30.5 °F 15.8 °F 29.92 in SSW 3.8 mph 29.0 mph 54 % 0.00 in
19:01 30.5 °F 15.8 °F 29.92 in SSW 1.4 mph 29.0 mph 54 % 0.00 in
19:06 30.6 °F 15.9 °F 29.92 in SSW 1.1 mph 29.0 mph 54 % 0.00 in
19:11 30.7 °F 16.0 °F 29.92 in SW 1.0 mph 29.0 mph 54 % 0.00 in
19:16 30.7 °F 16.4 °F 29.92 in SW 3.3 mph 29.0 mph 55 % 0.00 in
19:21 30.8 °F 16.1 °F 29.93 in SW 3.3 mph 29.0 mph 54 % 0.00 in
19:26 30.8 °F 16.1 °F 29.92 in WSW 0.1 mph 29.0 mph 54 % 0.00 in
19:31 30.9 °F 16.6 °F 29.92 in SW 0.7 mph 29.0 mph 55 % 0.00 in
19:36 30.9 °F 16.2 °F 29.91 in South 1.2 mph 29.0 mph 54 % 0.00 in
19:41 30.9 °F 16.2 °F 29.92 in SSW 2.3 mph 29.0 mph 54 % 0.00 in
19:46 30.9 °F 16.6 °F 29.92 in SW 1.6 mph 29.0 mph 55 % 0.00 in
19:51 30.9 °F 16.2 °F 29.93 in SSW 0.7 mph 29.0 mph 54 % 0.00 in
19:57 30.9 °F 16.2 °F 29.93 in SW 1.7 mph 29.0 mph 54 % 0.00 in
20:02 30.9 °F 16.6 °F 29.94 in West 2.2 mph 29.0 mph 55 % 0.00 in
20:07 30.9 °F 16.6 °F 29.94 in SW 2.3 mph 29.0 mph 55 % 0.00 in
20:12 30.9 °F 16.6 °F 29.94 in SW 2.4 mph 29.0 mph 55 % 0.00 in
20:17 31.0 °F 17.1 °F 29.94 in WSW 3.8 mph 29.0 mph 56 % 0.00 in
20:22 31.1 °F 17.2 °F 29.94 in SSW 0.9 mph 29.0 mph 56 % 0.00 in
20:27 31.1 °F 17.2 °F 29.93 in WSW 0.1 mph 29.0 mph 56 % 0.00 in
20:32 31.2 °F 17.3 °F 29.92 in WSW 0.8 mph 29.0 mph 56 % 0.00 in
20:37 31.2 °F 17.3 °F 29.92 in SW 0.2 mph 29.0 mph 56 % 0.00 in
20:42 31.3 °F 17.0 °F 29.93 in SW 0.6 mph 29.0 mph 55 % 0.00 in
20:47 31.4 °F 17.1 °F 29.94 in SW 1.9 mph 29.0 mph 55 % 0.00 in
20:52 31.4 °F 17.1 °F 29.94 in WSW 1.3 mph 29.0 mph 55 % 0.00 in
20:57 31.4 °F 17.1 °F 29.94 in WSW 0.8 mph 29.0 mph 55 % 0.00 in
21:03 31.5 °F 17.2 °F 29.93 in SW 1.5 mph 29.0 mph 55 % 0.00 in
21:08 31.5 °F 17.2 °F 29.94 in SW 3.8 mph 29.0 mph 55 % 0.00 in
21:13 31.6 °F 17.3 °F 29.94 in SW 4.3 mph 29.0 mph 55 % 0.00 in
21:18 31.6 °F 17.3 °F 29.94 in West 1.7 mph 29.0 mph 55 % 0.00 in
21:23 31.7 °F 17.4 °F 29.94 in WSW 2.8 mph 29.0 mph 55 % 0.00 in
21:28 31.7 °F 17.4 °F 29.94 in WSW 1.7 mph 29.0 mph 55 % 0.00 in
21:33 31.7 °F 17.4 °F 29.94 in SW 1.1 mph 29.0 mph 55 % 0.00 in
21:39 31.7 °F 17.4 °F 29.94 in SSW 4.0 mph 29.0 mph 55 % 0.00 in
21:44 31.8 °F 17.0 °F 29.93 in SSW 2.8 mph 29.0 mph 54 % 0.00 in
21:49 31.8 °F 17.0 °F 29.93 in SSW 3.2 mph 29.0 mph 54 % 0.00 in
21:54 31.9 °F 17.5 °F 29.93 in SW 2.5 mph 29.0 mph 55 % 0.00 in
21:59 31.9 °F 17.5 °F 29.93 in South 2.2 mph 29.0 mph 55 % 0.00 in
22:04 31.9 °F 17.5 °F 29.93 in WSW 4.7 mph 29.0 mph 55 % 0.00 in
22:09 32.0 °F 17.6 °F 29.94 in SW 2.6 mph 29.0 mph 55 % 0.00 in
22:14 32.0 °F 17.6 °F 29.93 in SW 2.0 mph 7.0 mph 55 % 0.00 in
22:19 32.1 °F 18.1 °F 29.93 in WSW 6.0 mph 9.0 mph 56 % 0.00 in
22:24 32.1 °F 18.2 °F 29.93 in SW 2.0 mph 5.0 mph 56 % 0.00 in
22:29 32.2 °F 18.2 °F 29.93 in SW 3.0 mph 8.0 mph 56 % 0.00 in
22:34 32.2 °F 18.2 °F 29.92 in SW 3.0 mph 8.0 mph 56 % 0.00 in
22:39 32.2 °F 18.3 °F 29.92 in SW 2.0 mph 6.0 mph 56 % 0.00 in
22:44 32.2 °F 18.2 °F 29.92 in Calm   5.0 mph 56 % 0.00 in
22:49 32.2 °F 18.2 °F 29.92 in WSW 2.0 mph 10.0 mph 56 % 0.00 in
22:54 32.2 °F 18.2 °F 29.92 in WSW 3.0 mph 6.0 mph 56 % 0.00 in
22:59 32.1 °F 18.2 °F 29.93 in SSW 2.3 mph 29.0 mph 56 % 0.00 in
23:04 32.1 °F 18.2 °F 29.93 in SW 1.0 mph 6.0 mph 56 % 0.00 in
23:09 32.1 °F 18.2 °F 29.93 in SW 2.0 mph 5.0 mph 56 % 0.00 in
23:14 32.1 °F 18.1 °F 29.93 in SW 2.0 mph 6.0 mph 56 % 0.00 in
23:19 32.0 °F 18.1 °F 29.93 in SW 2.4 mph 29.0 mph 56 % 0.00 in
23:24 32.0 °F 18.5 °F 29.93 in SW 2.0 mph 5.0 mph 57 % 0.00 in
23:29 32.0 °F 18.5 °F 29.92 in SW 1.0 mph 4.0 mph 57 % 0.00 in
23:34 32.0 °F 18.8 °F 29.92 in SSW 1.0 mph 4.0 mph 58 % 0.00 in
23:39 31.9 °F 18.4 °F 29.92 in Calm   2.0 mph 57 % 0.00 in
23:44 31.9 °F 18.4 °F 29.92 in SSW 0.4 mph 29.0 mph 57 % 0.00 in
23:49 31.9 °F 18.4 °F 29.92 in SSW 0.5 mph 29.0 mph 57 % 0.00 in
23:54 31.9 °F 18.4 °F 29.92 in SSW 0.4 mph 29.0 mph 57 % 0.00 in
23:59 31.9 °F 18.4 °F 29.92 in SW 0.4 mph 29.0 mph 57 % 0.00 in
Crab Meadow Weather
Compliments of Weather Underground - 3 mb

Script developed by  Jim McMurry - jmcmurry@mwt.net Adapted for the template by  Wim van der Kuil - Leuven-Template.eu

One Inch of Rain: One inch of rain over one square mile equals to 17.4 million gallons of water.